| time (UTC) | temp F | wind direction | speed MPH | gust MPH | rain 1hr in | rain 24hr in | rain mn in | humidity % | barometer mb |
| 20260904234507 | 70 | 332 | 1.0 | 3.0 | 0.00 | 0.02 | 0.02 | 42 | 1011.1 |
| 20260904233009 | 71 | 10 | 1.0 | 4.0 | 0.00 | 0.02 | 0.02 | 40 | 1011.1 |
| 20260904231507 | 71 | 89 | 0.0 | 4.0 | 0.00 | 0.02 | 0.02 | 41 | 1011.1 |
| 20260904224509 | 74 | 294 | 1.0 | 3.0 | 0.00 | 0.02 | 0.02 | 42 | 1011.1 |
| 20260904223007 | 74 | 309 | 1.0 | 4.0 | 0.00 | 0.02 | 0.02 | 41 | 1011.2 |
| 20260904221506 | 74 | 13 | 0.0 | 3.0 | 0.00 | 0.02 | 0.02 | 46 | 1011.1 |
| 20260904214508 | 73 | 325 | 0.0 | 2.0 | 0.00 | 0.02 | 0.02 | 52 | 1011.1 |
| 20260904213059 | 72 | 320 | 1.0 | 3.0 | 0.00 | 0.02 | 0.02 | 58 | 1011.1 |
| 20260904211555 | 70 | 6 | 0.0 | 3.0 | 0.00 | 0.02 | 0.02 | 61 | 1011.3 |
| 20260904204551 | 67 | 342 | 0.0 | 1.0 | 0.00 | 0.02 | 0.02 | 71 | 1011.3 |
| 20260904203046 | 64 | 340 | 0.0 | 1.0 | 0.00 | 0.02 | 0.02 | 78 | 1011.3 |
| 20260904201542 | 63 | 349 | 0.0 | 2.0 | 0.00 | 0.02 | 0.02 | 82 | 1011.3 |
| 20260904194541 | 61 | 339 | 0.0 | 3.0 | 0.00 | 0.02 | 0.02 | 87 | 1011.4 |
| 20260904193039 | 60 | 5 | 0.0 | 3.0 | 0.00 | 0.02 | 0.02 | 90 | 1011.5 |
| 20260904191536 | 59 | 349 | 0.0 | 1.0 | 0.00 | 0.02 | 0.02 | 90 | 1011.6 |
| 20260904184529 | 58 | 12 | 0.0 | 1.0 | 0.00 | 0.02 | 0.02 | 94 | 1011.7 |
| 20260904183029 | 57 | 11 | 0.0 | 1.0 | 0.01 | 0.02 | 0.02 | 95 | 1011.8 |
| 20260904181527 | 56 | 13 | 0.0 | 1.0 | 0.01 | 0.02 | 0.02 | 95 | 1011.7 |
| 20260904174528 | 56 | 11 | 0.0 | 1.0 | 0.01 | 0.02 | 0.02 | 95 | 1011.7 |
| 20260904173026 | 56 | 347 | 0.0 | 0.0 | 0.02 | 0.02 | 0.02 | 95 | 1011.6 |
| 20260904171523 | 55 | 347 | 0.0 | 2.0 | 0.01 | 0.01 | 0.01 | 95 | 1011.3 |
| 20260904164521 | 55 | 13 | 0.0 | 1.0 | 0.01 | 0.01 | 0.01 | 95 | 1011.0 |
| 20260904163021 | 55 | 13 | 0.0 | 0.0 | 0.00 | 0.00 | 0.00 | 95 | 1010.8 |
| 20260904161518 | 55 | 13 | 0.0 | 0.0 | 0.00 | 0.00 | 0.00 | 95 | 1010.7 |
| 20260904154518 | 54 | 13 | 0.0 | 1.0 | 0.00 | 0.00 | 0.00 | 94 | 1010.7 |
| 20260904153018 | 54 | 13 | 0.0 | 0.0 | 0.00 | 0.00 | 0.00 | 94 | 1010.6 |
| 20260904151518 | 54 | 13 | 0.0 | 0.0 | 0.00 | 0.00 | 0.00 | 94 | 1010.7 |
| 20260904144515 | 55 | 6 | 0.0 | 1.0 | 0.00 | 0.00 | 0.00 | 93 | 1010.5 |
| 20260904143013 | 56 | 11 | 0.0 | 0.0 | 0.00 | 0.00 | 0.00 | 93 | 1010.4 |
| 20260904141511 | 56 | 11 | 0.0 | 0.0 | 0.00 | 0.00 | 0.00 | 93 | 1010.2 |
| 20260904134511 | 56 | 11 | 0.0 | 0.0 | 0.00 | 0.00 | 0.00 | 92 | 1009.9 |
| 20260904133003 | 57 | 12 | 0.0 | 0.0 | 0.00 | 0.00 | 0.00 | 92 | 1009.8 |
| 20260904131503 | 57 | 12 | 0.0 | 0.0 | 0.00 | 0.00 | 0.00 | 90 | 1009.8 |
| 20260904124608 | 57 | 353 | 0.0 | 0.0 | 0.00 | 0.00 | 0.00 | 89 | 1009.5 |
| 20260904123100 | 57 | 352 | 0.0 | 0.0 | 0.00 | 0.00 | 0.00 | 89 | 1009.4 |
| 20260904121600 | 57 | 353 | 0.0 | 0.0 | 0.00 | 0.00 | 0.00 | 89 | 1009.6 |
| 20260904120201 | 57 | 352 | 0.0 | 0.0 | 0.00 | 0.00 | 0.00 | 89 | 1009.6 |
| 20260904114502 | 57 | 353 | 0.0 | 0.0 | 0.00 | 0.00 | 0.00 | 89 | 1009.3 |
| 20260904113101 | 57 | 353 | 0.0 | 0.0 | 0.00 | 0.00 | 0.00 | 89 | 1009.2 |
| 20260904113002 | 57 | 353 | 0.0 | 0.0 | 0.00 | 0.00 | 0.00 | 89 | 1009.2 |
| 20260904111558 | 57 | 353 | 0.0 | 0.0 | 0.00 | 0.00 | 0.00 | 88 | 1009.2 |
| 20260904110159 | 57 | 353 | 0.0 | 0.0 | 0.00 | 0.00 | 0.00 | 88 | 1009.1 |
| 20260904104555 | 57 | 353 | 0.0 | 0.0 | 0.00 | 0.00 | 0.00 | 88 | 1009.1 |
| 20260904103054 | 57 | 352 | 0.0 | 0.0 | 0.00 | 0.00 | 0.00 | 88 | 1009.1 |
| 20260904101553 | 57 | 353 | 0.0 | 0.0 | 0.00 | 0.00 | 0.00 | 88 | 1009.1 |
| 20260904100152 | 58 | 353 | 0.0 | 0.0 | 0.00 | 0.00 | 0.00 | 88 | 1009.2 |
| 20260904094551 | 58 | 353 | 0.0 | 0.0 | 0.00 | 0.00 | 0.00 | 88 | 1009.2 |
| 20260904093049 | 58 | 353 | 0.0 | 0.0 | 0.00 | 0.00 | 0.00 | 88 | 1009.2 |
| 20260904091552 | 58 | 353 | 0.0 | 0.0 | 0.00 | 0.00 | 0.00 | 88 | 1009.2 |
| 20260904090147 | 58 | 353 | 0.0 | 0.0 | 0.00 | 0.00 | 0.00 | 88 | 1009.4 |
| 20260904084545 | 58 | 353 | 0.0 | 0.0 | 0.00 | 0.00 | 0.00 | 88 | 1009.6 |
| 20260904083044 | 58 | 353 | 0.0 | 0.0 | 0.00 | 0.00 | 0.00 | 88 | 1009.6 |
| 20260904081552 | 58 | 353 | 0.0 | 0.0 | 0.00 | 0.00 | 0.00 | 88 | 1009.6 |
| 20260904080142 | 57 | 353 | 0.0 | 0.0 | 0.00 | 0.00 | 0.00 | 88 | 1009.6 |
| 20260904074540 | 57 | 353 | 0.0 | 0.0 | 0.00 | 0.00 | 0.00 | 88 | 1009.7 |
| 20260904073039 | 57 | 353 | 0.0 | 0.0 | 0.00 | 0.00 | 0.00 | 87 | 1009.6 |
| 20260904071539 | 57 | 353 | 0.0 | 1.0 | 0.00 | 0.00 | 0.00 | 88 | 1009.6 |
| 20260904070140 | 57 | 353 | 0.0 | 0.0 | 0.00 | 0.00 | 0.00 | 87 | 1009.6 |
| 20260904064535 | 57 | 353 | 0.0 | 0.0 | 0.00 | 0.00 | 0.00 | 86 | 1009.4 |
| 20260904063039 | 58 | 353 | 0.0 | 0.0 | 0.00 | 0.00 | 0.00 | 85 | 1009.3 |
| 20260904061542 | 58 | 353 | 0.0 | 0.0 | 0.00 | 0.00 | 0.00 | 85 | 1009.3 |
| 20260904060135 | 58 | 353 | 0.0 | 0.0 | 0.00 | 0.00 | 0.00 | 85 | 1009.5 |
| 20260904054538 | 59 | 352 | 0.0 | 0.0 | 0.00 | 0.00 | 0.00 | 85 | 1009.6 |
| 20260904053036 | 59 | 353 | 0.0 | 0.0 | 0.00 | 0.00 | 0.00 | 84 | 1009.8 |
| 20260904051535 | 59 | 353 | 0.0 | 0.0 | 0.00 | 0.00 | 0.00 | 84 | 1010.0 |
| 20260904050136 | 59 | 12 | 0.0 | 0.0 | 0.00 | 0.00 | 0.00 | 83 | 1010.1 |
| 20260904044548 | 60 | 1 | 0.0 | 1.0 | 0.00 | 0.00 | 0.00 | 83 | 1010.1 |
| 20260904043054 | 60 | 330 | 0.0 | 1.0 | 0.00 | 0.00 | 0.00 | 82 | 1010.1 |
| 20260904041533 | 60 | 330 | 0.0 | 1.0 | 0.00 | 0.00 | 0.00 | 81 | 1010.1 |
| 20260904034534 | 61 | 26 | 0.0 | 1.0 | 0.00 | 0.00 | 0.00 | 77 | 1009.8 |
| 20260904033034 | 62 | 36 | 0.0 | 0.0 | 0.00 | 0.00 | 0.00 | 76 | 1009.6 |
| 20260904031534 | 62 | 36 | 0.0 | 0.0 | 0.00 | 0.00 | 0.00 | 75 | 1009.5 |
| 20260904030136 | 62 | 36 | 0.0 | 0.0 | 0.00 | 0.00 | 0.00 | 74 | 1009.4 |
| 20260904024531 | 63 | 36 | 0.0 | 1.0 | 0.00 | 0.00 | 0.00 | 73 | 1009.5 |
| 20260904023030 | 63 | 315 | 0.0 | 0.0 | 0.00 | 0.00 | 0.00 | 71 | 1009.7 |
| 20260904021529 | 64 | 315 | 0.0 | 0.0 | 0.00 | 0.00 | 0.00 | 69 | 1009.5 |
| 20260904020129 | 65 | 309 | 0.0 | 1.0 | 0.00 | 0.00 | 0.00 | 67 | 1009.6 |
| 20260904014529 | 66 | 295 | 0.0 | 2.0 | 0.00 | 0.00 | 0.00 | 65 | 1009.6 |
| 20260904013028 | 67 | 352 | 0.0 | 2.0 | 0.00 | 0.00 | 0.00 | 61 | 1009.5 |
| 20260904011528 | 68 | 304 | 0.0 | 2.0 | 0.00 | 0.00 | 0.00 | 56 | 1009.6 |
| 20260904004526 | 71 | 11 | 0.0 | 2.0 | 0.00 | 0.00 | 0.00 | 43 | 1009.6 |
| 20260904003026 | 72 | 356 | 0.0 | 2.0 | 0.00 | 0.00 | 0.00 | 43 | 1009.6 |
| 20260904001525 | 71 | 280 | 1.0 | 3.0 | 0.00 | 0.00 | 0.00 | 43 | 1009.6 |
| 20260904000126 | 71 | 359 | 1.0 | 3.0 | 0.00 | 0.00 | 0.00 | 41 | 1009.6 |